Location: Haliburton Scout Reserve
(45.0900°N, 78.3200°W)
Time: 18:49:19
(UTC-05:00)

Courier 1B - Pass Details

Date: 05 December 2023
Orbit: 962 x 1209 km, 28.3° (Epoch: 23 February)

Event Time Altitude Azimuth Distance (km) Brightness Sun altitude
Rises 09:28:23 0° 221° (SW) 3,773 10.7 13.8°
Reaches altitude 10° 09:32:31 10° 198° (SSW) 2,773 10.5 14.2°
Maximum altitude 09:35:53 14° 168° (SSE) 2,432 11.2 14.6°
Drops below altitude 10° 09:39:11 10° 137° (SE) 2,715 12.3 14.9°
Sets 09:43:09 0° 114° (ESE) 3,641 11.5 15.3°
